Temperature
16 16 15 15 15 15 15 15 15 15 15 15 15 15 15 15 15 15 15 15 15 15 15 15 15 15 15 15 15 15 15 15 15 15 15 15 14 15 15 15 15 15 15
16 15 15 15 15 15 15 15 15 15 15 15 15 15 15 15 15 15 15 15 15 15 15 14 14 14 14 15 15 15 15 15 14 14 14 14 14 14 14 14 14 14 14
15 15 15 15 15 15 15 15 15 15 15 15 15 15 15 15 15 15 14 15 15 14 14 14 14 14 14 14 14 14 14 14 14 14 14 14 14 14 14 14 14 14 14
15 15 15 15 15 15 15 15 15 15 14 15 14 14 14 14 14 14 14 14 14 14 14 14 14 14 14 14 14 14 14 14 14 14 14 14 14 14 14 14 14 14 14
15 15 15 15 15 15 14 14 14 14 14 14 14 14 14 14 14 14 14 14 14 14 14 14 14 14 14 14 13 13 13 13 13 13 13 13 13 13 13 13 13 13 13
15 15 15 15 15 15 14 14 14 14 14 14 14 14 14 14 14 14 14 14 14 14 14 14 14 13 13 13 13 13 13 13 13 13 13 13 13 13 13 13 13 13 13
15 15 15 15 15 15 15 14 14 14 14 14 14 14 13 13 14 14 13 14 13 13 13 13 13 13 13 13 13 13 12 12 12 13 12 12 12 12 12 12 12 12 12
15 15 15 15 15 15 14 14 14 14 14 14 14 14 13 13 13 13 13 13 13 13 13 13 13 13 13 13 12 12 12 12 12 12 12 12 12 12 12 12 12 12 12
15 15 15 15 15 15 15 14 14 14 14 14 14 14 13 13 13 13 13 13 13 13 13 13 13 13 12 12 12 12 12 12 12 12 12 12 11 12 12 11 12 12 12
15 15 15 15 15 14 14 14 14 14 14 14 14 13 13 13 13 13 12 13 13 13 12 12 12 12 12 12 12 12 12 11 11 11 11 11 11 11 11 11 11 11 11
15 15 15 14 14 14 14 14 14 14 14 13 13 13 13 13 13 13 12 12 12 12 12 12 12 12 12 12 12 12 11 11 11 11 11 11 11 11 11 11 11 11 11
15 15 15 14 14 14 14 14 14 13 13 13 13 13 13 13 13 13 13 12 12 12 12 12 12 12 12 12 12 12 11 11 11 11 11 11 11 11 11 10 11 11 10
15 15 15 14 14 14 14 14 13 13 13 13 13 13 13 13 13 13 13 12 12 12 12 12 12 11 11 11 11 11 11 11 11 11 11 11 11 11 10 10 10 10 10
15 14 14 14 14 14 14 13 13 13 13 13 13 13 13 13 13 12 12 12 12 12 12 12 11 11 11 11 11 11 11 11 11 11 10 10 10 10 10 10 10 10 9
14 14 14 14 14 14 13 13 13 13 13 13 13 13 13 12 12 12 12 12 12 12 11 11 11 11 11 11 11 11 11 11 10 10 10 10 10 10 10 10 10 9 9
14 14 14 14 14 13 13 13 13 13 13 13 13 12 12 12 12 12 12 12 11 11 11 11 11 11 11 11 11 11 11 10 10 10 10 10 10 10 10 9 9 9 9
14 14 13 13 13 13 13 13 13 13 13 13 12 12 12 12 12 12 12 11 11 11 11 11 11 11 11 11 10 10 10 10 10 10 10 10 10 9 9 9 9 9 9
13 13 13 13 13 13 13 13 13 13 12 12 12 12 12 12 12 12 11 11 11 11 11 11 11 11 11 10 10 10 10 10 10 10 9 9 9 9 9 9 9 9 9
13 13 13 13 13 13 13 13 12 12 12 12 12 12 12 12 12 11 11 11 11 11 11 11 11 11 10 10 10 10 10 10 10 9 9 9 9 9 9 9 9 9 9
13 13 13 13 13 13 12 12 12 12 12 12 12 12 11 11 11 11 11 11 11 11 11 11 11 10 10 10 10 10 10 9 9 9 9 9 9 9 9 9 9 9 9
13 12 12 12 12 12 12 12 12 12 12 12 12 11 11 11 11 11 11 11 11 11 11 10 10 10 10 10 10 9 9 9 9 9 9 9 9 9 9 9 9 8 8
12 12 12 12 12 12 12 12 12 12 11 11 11 11 11 11 11 10 10 10 10 10 10 10 10 10 10 10 10 9 9 9 8 9 9 9 9 9 9 8 8 8 8
12 12 12 12 12 12 11 11 11 11 11 11 11 11 11 11 11 10 10 10 10 10 10 10 10 10 10 9 9 9 9 9 9 8 8 9 8 8 8 8 8 8 8
12 12 12 11 11 11 11 11 11 11 11 11 11 10 10 10 10 10 10 10 10 10 10 10 10 9 9 9 9 9 9 8 8 8 8 8 8 8 8 8 8 8 8
11 11 11 11 11 11 11 11 10 10 10 10 10 10 10 10 10 10 10 10 10 10 10 9 9 9 9 9 9 8 8 8 8 8 8 8 8 8 8 8 8 8 7
11 11 11 11 10 10 10 10 10 10 10 10 10 10 10 10 10 9 9 9 9 10 9 9 9 9 9 9 8 8 8 8 8 7 8 7 7 7 7 8 8 7 7
Wind_Speed
3 3 4 5 6 7 6 5 6 6 6 7 7 7 6 7 8 8 8 11 11 11 11 11 11 11 12 12 11 11 11 11 11 12 12 12 12 12 11 11 10 10 10
4 4 4 4 5 6 6 6 6 5 5 5 6 7 7 7 8 9 9 11 12 12 11 11 11 11 12 12 12 11 11 11 11 11 11 11 12 12 13 12 11 11 10
5 4 3 3 4 6 7 7 7 6 5 5 5 5 6 7 7 8 9 9 10 11 12 11 11 11 12 11 11 11 11 11 11 11 11 11 12 12 12 12 11 11 11
6 5 4 3 4 6 6 4 4 5 4 4 4 4 5 6 7 7 8 8 9 9 11 11 11 11 11 11 11 11 11 11 10 10 11 12 11 11 11 11 11 11 11
6 6 4 3 5 5 3 3 3 3 3 4 4 4 4 4 5 6 7 8 8 9 9 10 11 11 10 10 10 11 11 11 11 10 10 11 11 10 10 10 10 10 10
7 7 5 4 4 3 3 3 3 3 3 3 4 5 5 4 5 6 5 7 8 8 9 9 9 10 11 10 10 9 9 10 10 10 10 10 10 9 9 9 9 9 9
6 6 4 4 3 3 3 3 3 4 3 2 3 3 4 5 6 5 5 6 7 8 9 9 9 8 8 10 10 9 9 9 9 10 10 10 9 9 8 8 8 8 9
5 5 4 3 3 3 3 3 3 2 1 2 2 2 2 4 4 5 4 4 5 6 7 8 9 9 8 8 9 9 9 9 9 9 9 9 9 9 9 9 9 9 9
4 5 4 4 3 3 3 3 3 4 2 1 2 3 3 2 1 3 3 4 4 4 4 5 7 8 7 8 8 8 9 8 8 8 8 7 7 7 7 7 7 8 8
3 4 4 4 3 2 3 3 3 2 3 2 1 2 2 3 3 0 2 3 3 3 3 3 4 6 6 7 7 8 8 7 7 7 6 6 6 6 6 6 6 6 6
2 3 4 4 3 2 3 3 3 3 3 3 2 2 2 2 2 3 1 2 2 2 2 2 2 3 5 5 5 6 6 6 6 6 6 5 5 5 5 5 5 5 5
1 2 3 3 3 2 3 3 3 3 3 3 2 2 3 2 2 2 2 1 1 2 2 1 1 2 3 3 3 4 4 5 4 4 4 4 4 4 4 4 4 4 4
2 3 3 3 2 3 3 3 3 3 3 3 3 2 2 2 3 3 3 2 1 2 2 2 1 1 1 2 2 2 2 2 2 2 3 3 3 4 4 4 4 4 4
3 3 3 3 4 4 3 3 2 2 2 3 3 3 2 2 3 3 3 3 1 1 2 3 2 2 1 1 1 1 1 1 1 1 2 2 2 3 3 4 3 3 3
3 3 3 3 3 3 3 3 2 2 2 2 3 3 2 2 2 2 3 3 4 2 3 3 2 2 2 2 2 1 1 2 2 2 2 2 3 3 3 3 3 3 3
2 3 3 3 3 3 3 3 2 2 3 2 2 3 2 2 2 2 3 2 3 4 3 3 3 2 2 2 2 2 2 3 3 3 3 3 3 4 4 4 4 4 4
2 3 3 3 3 3 3 3 3 3 4 3 2 3 3 3 2 2 2 2 2 3 3 2 1 1 1 1 2 2 2 2 3 4 4 4 4 4 5 5 5 5 5
2 2 3 3 3 3 3 4 4 4 4 4 4 3 3 2 3 2 3 3 3 3 3 3 1 1 2 2 2 2 2 3 3 4 4 4 4 4 5 5 5 5 6
2 2 2 3 3 3 4 4 4 4 5 5 5 5 4 4 3 3 3 3 3 2 2 2 2 1 1 1 1 1 2 2 3 4 4 4 5 5 5 5 6 6 6
3 3 3 3 3 4 4 4 4 4 4 4 4 4 4 5 5 5 4 4 3 3 2 2 1 1 1 1 0 1 2 2 2 3 3 4 5 5 5 5 6 6 6
3 3 2 2 2 3 4 4 4 4 4 4 3 4 4 5 6 5 4 5 5 4 3 3 2 1 2 1 2 2 2 2 3 2 2 3 3 3 5 6 6 6 6
2 2 2 2 2 3 4 5 5 4 4 4 4 4 4 4 6 7 6 6 7 6 5 4 3 4 4 4 2 2 2 1 3 2 1 3 2 3 5 6 6 6 6
2 2 3 3 3 4 5 5 6 4 4 5 5 4 3 4 4 4 5 5 6 7 7 6 5 6 5 6 5 4 4 4 4 2 1 3 2 3 5 5 7 6 5
3 3 3 3 3 4 5 5 6 4 4 4 5 5 5 4 4 4 3 3 4 5 6 5 6 6 6 6 7 6 5 3 2 2 3 2 2 3 3 5 7 6 5
2 2 2 3 4 5 5 5 3 2 3 4 4 4 4 5 6 6 4 4 4 4 6 8 8 7 7 6 6 3 3 2 2 2 2 2 2 2 2 3 5 5 5
3 2 2 3 3 5 5 5 4 2 3 3 3 3 5 6 6 6 5 5 5 5 3 3 4 5 5 6 8 7 6 4 2 3 3 3 2 1 2 2 2 4 4
Wind_Direction
89 80 72 66 68 75 75 71 71 69 67 64 59 59 52 48 41 38 37 48 58 66 71 74 76 77 76 77 82 86 86 83 79 76 77 77 74 70 67 70 73 71 72
103 93 83 73 71 78 81 81 79 76 69 67 59 55 51 49 47 46 41 39 44 53 61 65 69 74 75 77 79 81 82 82 80 78 78 77 73 69 65 65 67 68 69
111 109 97 84 81 85 86 82 73 71 65 61 50 46 50 48 48 45 43 41 39 42 47 55 62 69 72 75 78 80 81 80 81 80 78 76 72 69 66 63 64 63 62
114 108 99 92 94 94 91 84 70 71 62 57 50 38 40 43 43 45 46 43 42 39 36 45 54 64 69 72 74 79 79 78 80 82 79 74 72 69 67 64 63 63 63
121 113 108 102 105 100 88 93 74 82 80 67 62 50 35 36 34 43 44 40 42 43 40 38 45 54 63 67 71 75 77 76 78 83 83 75 72 70 67 65 63 61 61
136 127 125 124 122 112 93 88 88 71 83 80 75 59 41 34 37 37 37 42 43 45 46 44 42 42 50 60 66 71 75 76 76 79 79 75 73 70 67 64 61 60 61
137 137 137 137 132 125 126 118 106 90 75 71 79 53 31 37 44 34 32 41 41 43 48 46 45 44 40 47 55 64 68 70 71 73 74 73 71 69 66 62 59 58 60
143 145 142 150 146 132 119 123 125 116 89 65 99 89 34 10 18 30 28 34 29 37 42 43 45 45 44 44 47 56 58 62 67 72 72 70 70 68 63 58 58 58 58
146 142 147 151 149 148 155 161 152 139 144 72 71 123 134 194 330 358 19 30 22 29 27 39 44 43 44 46 44 49 55 58 64 68 67 65 64 63 61 56 53 51 50
144 148 149 150 154 159 163 176 161 147 140 142 70 56 111 145 142 25 347 0 13 25 16 29 36 39 41 46 47 47 53 55 59 61 60 56 56 54 55 52 46 44 43
142 158 165 164 161 166 175 177 158 154 156 156 153 135 94 71 93 140 212 326 349 347 0 13 27 31 34 43 48 46 49 51 52 51 52 50 50 49 50 49 44 43 43
203 188 179 176 174 174 179 186 174 169 173 161 156 153 152 147 161 148 168 229 286 304 320 351 6 1 19 29 44 45 48 47 45 44 41 39 41 40 35 37 39 38 38
223 219 195 190 187 186 177 167 163 177 176 172 175 179 174 170 153 150 145 169 230 295 316 309 293 314 347 9 19 32 44 39 28 28 29 25 24 22 14 16 21 25 28
223 218 200 197 193 181 172 162 169 181 170 181 185 175 169 177 164 161 158 151 140 318 309 278 285 261 280 284 315 358 6 1 345 338 351 351 349 352 353 350 352 359 3
217 200 196 194 184 174 167 162 176 179 158 176 185 181 178 180 170 172 158 158 157 184 251 256 259 267 259 252 279 302 293 295 303 302 300 306 307 314 318 319 319 323 327
212 195 198 196 188 178 171 172 179 176 161 180 180 174 187 184 168 163 167 170 166 170 208 238 240 258 251 257 278 271 273 294 291 288 293 297 297 296 298 294 292 294 294
213 202 204 202 197 189 182 180 191 181 180 185 183 180 197 183 170 171 169 171 173 162 193 253 257 279 231 266 290 272 274 285 291 283 279 284 289 290 292 290 285 282 280
219 216 205 203 207 201 192 193 202 198 193 196 197 183 199 185 180 183 185 191 192 185 181 215 237 252 250 250 252 262 278 280 276 274 274 280 281 283 286 287 284 278 273
223 217 203 211 214 207 201 205 204 205 205 205 200 195 201 183 199 201 197 199 200 191 175 183 215 231 269 276 310 293 288 293 284 280 275 280 281 281 283 283 280 275 272
212 217 220 223 219 210 204 205 206 210 210 212 209 207 203 201 207 202 204 198 184 176 168 172 200 231 243 294 255 259 293 303 292 297 292 291 289 285 283 283 280 275 270
220 216 218 237 234 218 214 204 207 209 208 216 220 217 217 216 217 208 212 198 182 179 175 180 199 210 229 220 233 227 246 287 289 270 293 288 283 285 288 287 284 282 278
229 215 216 223 232 244 242 218 207 209 207 208 218 227 229 225 231 227 227 205 187 184 188 188 201 215 230 219 207 218 209 240 277 253 234 279 259 266 271 276 282 288 281
220 224 231 226 239 254 253 241 224 207 209 215 216 218 231 228 219 220 228 220 213 212 199 189 201 218 216 210 196 211 215 214 236 239 191 261 268 268 267 272 283 283 278
227 236 246 247 253 269 264 252 238 212 217 224 223 218 220 229 218 204 199 214 229 230 221 211 215 225 220 206 201 207 212 217 266 253 185 234 261 267 279 279 283 281 280
224 237 249 246 252 270 269 259 230 204 224 236 236 228 221 226 232 206 188 210 237 253 243 232 236 241 241 225 198 164 166 182 254 251 198 207 244 272 282 279 280 282 285
222 230 254 252 253 261 267 256 226 203 220 239 244 244 234 232 236 207 195 201 230 247 238 241 244 250 242 226 208 194 187 192 214 246 216 197 214 225 288 276 272 281 282
Height
1547 1548 1548 1548 1548 1548 1548 1548 1548 1548 1548 1548 1548 1547 1547 1546 1546 1545 1545 1544 1544 1543 1542 1541 1541 1541 1540 1539 1539 1540 1541 1541 1542 1543 1543 1543 1544 1544 1544 1544 1544 1544 1544
1548 1549 1549 1549 1549 1549 1549 1549 1549 1549 1549 1549 1549 1549 1548 1548 1547 1547 1546 1546 1545 1545 1544 1544 1543 1543 1542 1542 1542 1542 1542 1543 1543 1543 1544 1544 1544 1545 1545 1544 1545 1544 1544
1549 1549 1549 1550 1550 1550 1550 1550 1550 1550 1550 1550 1550 1550 1549 1549 1549 1549 1548 1548 1547 1547 1546 1546 1545 1545 1544 1544 1544 1543 1543 1544 1544 1544 1544 1545 1545 1545 1545 1545 1545 1545 1545
1549 1549 1550 1550 1550 1551 1551 1551 1551 1551 1551 1551 1551 1551 1550 1550 1550 1550 1550 1549 1549 1548 1548 1547 1547 1547 1546 1545 1545 1545 1545 1545 1545 1545 1545 1545 1545 1546 1546 1546 1546 1546 1546
1550 1550 1550 1550 1551 1551 1552 1552 1552 1552 1552 1552 1551 1551 1551 1551 1551 1550 1550 1550 1550 1550 1549 1548 1548 1548 1548 1547 1547 1546 1546 1546 1546 1546 1546 1546 1546 1546 1546 1546 1546 1546 1546
1550 1550 1551 1551 1551 1552 1552 1552 1552 1552 1552 1552 1552 1552 1552 1551 1551 1551 1551 1551 1551 1550 1550 1550 1549 1549 1549 1548 1548 1548 1548 1547 1547 1547 1546 1546 1546 1546 1546 1546 1546 1546 1546
1550 1550 1551 1551 1551 1552 1552 1552 1552 1552 1552 1552 1552 1552 1552 1552 1552 1552 1551 1551 1551 1551 1551 1550 1550 1550 1549 1549 1549 1549 1549 1548 1548 1547 1547 1547 1547 1547 1547 1547 1546 1546 1546
1550 1550 1551 1551 1551 1552 1552 1552 1552 1552 1552 1552 1552 1552 1552 1554 1552 1552 1552 1552 1551 1551 1551 1551 1551 1550 1550 1550 1550 1549 1549 1549 1548 1548 1547 1547 1547 1547 1547 1546 1546 1546 1546
1550 1550 1550 1550 1551 1551 1551 1551 1552 1551 1551 1552 1552 1553 1552 1552 1553 1553 1552 1552 1552 1552 1551 1551 1551 1551 1550 1550 1550 1549 1549 1549 1548 1548 1547 1547 1547 1547 1546 1546 1546 1546 1546
1549 1550 1550 1550 1550 1550 1550 1550 1551 1551 1551 1551 1551 1552 1552 1552 1552 1552 1553 1552 1552 1552 1551 1551 1551 1551 1550 1550 1550 1549 1549 1548 1548 1548 1547 1547 1547 1546 1546 1546 1545 1545 1545
1548 1549 1549 1549 1549 1549 1549 1549 1549 1550 1550 1550 1550 1551 1551 1551 1551 1551 1551 1552 1552 1551 1551 1551 1551 1550 1550 1550 1549 1549 1548 1548 1548 1547 1547 1546 1546 1546 1545 1545 1544 1544 1543
1547 1547 1548 1548 1548 1548 1548 1548 1548 1549 1549 1549 1549 1550 1550 1550 1550 1550 1550 1550 1550 1551 1550 1550 1550 1550 1549 1549 1548 1548 1548 1547 1547 1546 1546 1546 1545 1545 1544 1544 1543 1543 1542
1545 1546 1546 1546 1546 1546 1547 1547 1547 1547 1548 1548 1548 1548 1549 1549 1549 1549 1549 1549 1549 1549 1549 1549 1549 1549 1548 1548 1548 1547 1547 1546 1546 1545 1545 1544 1544 1543 1543 1542 1542 1541 1540
1543 1544 1544 1544 1545 1545 1545 1545 1545 1546 1546 1546 1547 1547 1547 1547 1548 1548 1548 1548 1547 1547 1547 1547 1547 1547 1547 1547 1546 1546 1545 1545 1544 1544 1543 1543 1542 1542 1541 1540 1540 1539 1539
1541 1541 1542 1542 1542 1543 1543 1543 1543 1544 1544 1544 1545 1545 1545 1546 1546 1546 1546 1546 1547 1546 1545 1545 1546 1545 1545 1545 1545 1544 1544 1543 1543 1542 1542 1541 1541 1540 1540 1539 1538 1537 1537
1538 1539 1539 1540 1540 1540 1541 1541 1541 1542 1542 1542 1543 1543 1543 1543 1544 1544 1544 1544 1544 1545 1544 1544 1544 1544 1544 1543 1543 1542 1542 1541 1541 1540 1540 1539 1539 1538 1537 1537 1536 1535 1534
1536 1536 1537 1537 1538 1538 1538 1538 1539 1539 1540 1540 1540 1541 1541 1541 1541 1542 1542 1542 1542 1542 1541 1541 1541 1541 1541 1541 1541 1540 1540 1539 1539 1538 1538 1537 1536 1536 1535 1534 1533 1532 1532
1533 1533 1534 1534 1535 1535 1535 1536 1536 1536 1537 1537 1538 1538 1538 1539 1539 1539 1539 1539 1539 1539 1539 1539 1539 1538 1538 1538 1538 1538 1537 1537 1536 1536 1535 1534 1534 1533 1532 1531 1530 1529 1528
1530 1530 1531 1531 1532 1532 1533 1533 1533 1534 1534 1534 1535 1535 1535 1536 1536 1536 1536 1536 1536 1536 1536 1536 1536 1536 1535 1535 1535 1535 1534 1534 1534 1533 1532 1531 1531 1530 1529 1528 1527 1526 1525
1527 1527 1528 1528 1529 1529 1530 1530 1530 1530 1531 1531 1531 1532 1532 1533 1533 1533 1533 1533 1533 1533 1533 1533 1533 1533 1533 1532 1532 1532 1531 1531 1531 1530 1529 1529 1527 1526 1525 1524 1523 1522 1521
1524 1525 1525 1525 1525 1526 1526 1526 1527 1527 1527 1527 1528 1528 1529 1529 1530 1530 1530 1530 1530 1530 1530 1530 1530 1529 1529 1529 1529 1528 1528 1528 1527 1527 1526 1525 1524 1523 1522 1521 1519 1518 1516
1521 1521 1521 1522 1522 1522 1522 1523 1523 1523 1523 1524 1524 1525 1525 1525 1526 1526 1526 1526 1527 1527 1526 1527 1526 1526 1526 1526 1526 1525 1525 1524 1523 1524 1523 1522 1521 1520 1519 1517 1516 1514 1512
1517 1517 1518 1518 1518 1518 1518 1519 1519 1519 1519 1520 1520 1521 1521 1521 1522 1522 1522 1522 1523 1523 1523 1523 1523 1523 1522 1522 1522 1522 1521 1520 1520 1520 1519 1518 1517 1516 1516 1514 1513 1511 1509
1514 1514 1514 1514 1514 1515 1515 1515 1515 1515 1515 1516 1516 1517 1517 1517 1518 1518 1518 1518 1519 1519 1519 1519 1519 1519 1519 1519 1518 1518 1518 1517 1516 1516 1516 1514 1513 1513 1512 1511 1510 1509 1508
1510 1510 1510 1510 1510 1511 1511 1511 1511 1511 1511 1512 1512 1513 1513 1514 1514 1514 1514 1514 1514 1515 1515 1515 1515 1515 1515 1515 1514 1514 1513 1513 1512 1512 1512 1511 1510 1509 1508 1507 1507 1506 1505
1506 1506 1506 1506 1506 1506 1507 1507 1507 1507 1507 1508 1508 1508 1509 1509 1510 1510 1510 1510 1510 1510 1511 1510 1510 1510 1510 1510 1510 1510 1509 1509 1508 1507 1507 1507 1506 1505 1504 1503 1503 1503 1502